NOAA 20 (JPSS-1)

Last updated on Thu Jul 03 2025 00:02:22 GMT+0000 (Coordinated Universal Time)

1 43013U 17073A 25183.53558014 .00000033 00000+0 36256-4 0 9990 2 43013 98.7417 121.8175 0000943 146.1591 213.9646 14.19512720394860
UTC large
Height (km)
Speed (km/s)
/
Latitude / Longitude
Inclination (degrees)
Orbital Period (minutes)
Azimuth
Elevation
Range (km)
Doppler Factor

Next 0 passes for location: London (51.5072 / 0.1276)

Sorry there are no passes over London.